DAL2391 SEMT-SEQM

Flight info

Callsign DAL2391
Flight time 0h 37m
Altitude 23000
Route ANLIR1C ANLIR DCT ORETA DCT TIPLU DCT QSV
Aircraft B738/M-SDE2E3FGHIRWXY/LB1

Departure

Time 2026-05-07 21:45
Airport Eloy Alfaro International Airport (SEMT)

Arrival

Time 2026-05-07 22:22
Airport Mariscal Sucre International Airport (SEQM)
Time Latitude Longitude Altitude Speed Heading
2026-05-07 21:01 -0.95287 -80.68447 56 ft 0 kts 146°
2026-05-07 21:33 -0.95276 -80.68454 56 ft 3 kts 144°
2026-05-07 21:33 -0.95260 -80.68466 56 ft 3 kts 141°
2026-05-07 21:33 -0.95244 -80.68479 56 ft 3 kts 138°
2026-05-07 21:33 -0.95230 -80.68493 56 ft 3 kts 131°
2026-05-07 21:34 -0.95217 -80.68509 56 ft 3 kts 118°
2026-05-07 21:34 -0.95211 -80.68526 56 ft 3 kts 84°
2026-05-07 21:34 -0.95214 -80.68537 56 ft 1 kts 56°
2026-05-07 21:34 -0.95216 -80.68539 56 ft 0 kts 56°
2026-05-07 21:37 -0.95208 -80.68528 56 ft 9 kts 56°
2026-05-07 21:37 -0.95134 -80.68421 56 ft 22 kts 56°
2026-05-07 21:38 -0.95044 -80.68284 56 ft 26 kts 57°
2026-05-07 21:38 -0.94944 -80.68123 56 ft 23 kts 59°
2026-05-07 21:38 -0.94871 -80.68034 56 ft 17 kts 50°
2026-05-07 21:38 -0.94815 -80.67956 56 ft 12 kts 53°
2026-05-07 21:39 -0.94780 -80.67907 56 ft 6 kts 55°
2026-05-07 21:39 -0.94769 -80.67892 56 ft 0 kts 55°
2026-05-07 21:39 -0.94743 -80.67855 56 ft 16 kts 55°
2026-05-07 21:40 -0.94659 -80.67733 56 ft 22 kts 56°
2026-05-07 21:40 -0.94586 -80.67623 56 ft 16 kts 56°
2026-05-07 21:40 -0.94535 -80.67546 56 ft 11 kts 57°
2026-05-07 21:40 -0.94501 -80.67493 56 ft 10 kts 57°
2026-05-07 21:41 -0.94454 -80.67423 56 ft 14 kts 56°
2026-05-07 21:41 -0.94392 -80.67329 56 ft 19 kts 53°
2026-05-07 21:41 -0.94313 -80.67221 56 ft 19 kts 58°
2026-05-07 21:41 -0.94233 -80.67098 56 ft 21 kts 56°
2026-05-07 21:42 -0.94160 -80.66990 56 ft 16 kts 52°
2026-05-07 21:42 -0.94103 -80.66915 56 ft 10 kts 51°
2026-05-07 21:42 -0.94065 -80.66873 56 ft 8 kts 41°
2026-05-07 21:42 -0.94023 -80.66834 56 ft 9 kts 43°
2026-05-07 21:43 -0.93962 -80.66821 56 ft 10 kts 345°
2026-05-07 21:43 -0.93924 -80.66869 56 ft 9 kts 252°
2026-05-07 21:43 -0.93934 -80.66893 56 ft 0 kts 244°
2026-05-07 21:44 -0.93935 -80.66893 56 ft 0 kts 244°
2026-05-07 21:44 -0.93936 -80.66897 56 ft 6 kts 244°
2026-05-07 21:44 -0.94026 -80.67033 56 ft 41 kts 235°
2026-05-07 21:44 -0.94282 -80.67377 56 ft 96 kts 238°
2026-05-07 21:45 -0.94801 -80.68146 243 ft 156 kts 234°
2026-05-07 21:45 -0.95364 -80.69094 1277 ft 158 kts 238°
2026-05-07 21:45 -0.95844 -80.70011 2463 ft 139 kts 239°
2026-05-07 21:45 -0.96367 -80.70782 3274 ft 134 kts 235°
2026-05-07 21:46 -0.96903 -80.71590 3806 ft 149 kts 235°
2026-05-07 21:46 -0.97571 -80.72483 4287 ft 171 kts 236°
2026-05-07 21:46 -0.98479 -80.73372 4724 ft 195 kts 212°
2026-05-07 21:46 -0.99772 -80.73988 5205 ft 215 kts 204°
2026-05-07 21:47 -1.01215 -80.74614 5645 ft 239 kts 203°
2026-05-07 21:47 -1.02797 -80.75293 6067 ft 252 kts 203°
2026-05-07 21:47 -1.04413 -80.75991 6468 ft 259 kts 203°
2026-05-07 21:47 -1.06074 -80.76715 6877 ft 259 kts 203°
2026-05-07 21:48 -1.07735 -80.77420 7266 ft 256 kts 198°
2026-05-07 21:48 -1.09456 -80.77571 7646 ft 253 kts 172°
2026-05-07 21:48 -1.11114 -80.76915 8055 ft 256 kts 146°
2026-05-07 21:48 -1.12301 -80.75595 8457 ft 259 kts 120°
2026-05-07 21:49 -1.12793 -80.73885 8855 ft 261 kts 94°
2026-05-07 21:49 -1.12501 -80.72099 9263 ft 266 kts 70°
2026-05-07 21:49 -1.11599 -80.70438 9685 ft 276 kts 61°
2026-05-07 21:49 -1.10634 -80.68783 10086 ft 275 kts 60°
2026-05-07 21:50 -1.09705 -80.67204 10467 ft 275 kts 60°
2026-05-07 21:50 -1.08708 -80.65508 10879 ft 278 kts 60°
2026-05-07 21:50 -1.07729 -80.63843 11280 ft 279 kts 60°
2026-05-07 21:50 -1.06774 -80.62218 11671 ft 278 kts 59°
2026-05-07 21:51 -1.05782 -80.60531 12081 ft 282 kts 59°
2026-05-07 21:51 -1.04754 -80.58782 12494 ft 299 kts 60°
2026-05-07 21:51 -1.03669 -80.56937 12906 ft 308 kts 60°
2026-05-07 21:51 -1.02570 -80.55068 13309 ft 314 kts 59°
2026-05-07 21:52 -1.01467 -80.53191 13708 ft 315 kts 59°
2026-05-07 21:52 -1.00371 -80.51326 14104 ft 317 kts 59°
2026-05-07 21:52 -0.99258 -80.49432 14503 ft 318 kts 59°
2026-05-07 21:52 -0.98118 -80.47492 14908 ft 321 kts 61°
2026-05-07 21:53 -0.96987 -80.45567 15308 ft 326 kts 61°
2026-05-07 21:53 -0.95848 -80.43628 15701 ft 330 kts 61°
2026-05-07 21:53 -0.94664 -80.41614 16110 ft 334 kts 60°
2026-05-07 21:53 -0.93468 -80.39579 16518 ft 333 kts 60°
2026-05-07 21:54 -0.92315 -80.37616 16912 ft 332 kts 60°
2026-05-07 21:54 -0.91141 -80.35618 17316 ft 332 kts 59°
2026-05-07 21:54 -0.89966 -80.33618 17718 ft 334 kts 59°
2026-05-07 21:54 -0.88789 -80.31614 18118 ft 336 kts 59°
2026-05-07 21:55 -0.87596 -80.29584 18519 ft 340 kts 60°
2026-05-07 21:55 -0.86384 -80.27522 18923 ft 345 kts 60°
2026-05-07 21:55 -0.85178 -80.25469 19321 ft 345 kts 59°
2026-05-07 21:55 -0.83965 -80.23404 19722 ft 344 kts 59°
2026-05-07 21:56 -0.82750 -80.21337 20122 ft 347 kts 59°
2026-05-07 21:56 -0.81521 -80.19245 20525 ft 349 kts 59°
2026-05-07 21:56 -0.80305 -80.17175 20920 ft 351 kts 59°
2026-05-07 21:56 -0.79066 -80.15067 21321 ft 353 kts 59°
2026-05-07 21:57 -0.77812 -80.12933 21730 ft 355 kts 61°
2026-05-07 21:57 -0.76536 -80.10762 22159 ft 362 kts 62°
2026-05-07 21:57 -0.75266 -80.08600 22581 ft 368 kts 61°
2026-05-07 21:57 -0.73957 -80.06373 22773 ft 375 kts 61°
2026-05-07 21:58 -0.72627 -80.04110 22790 ft 374 kts 61°
2026-05-07 21:58 -0.71315 -80.01876 22807 ft 371 kts 60°
2026-05-07 21:58 -0.70031 -79.99691 22829 ft 369 kts 59°
2026-05-07 21:58 -0.68723 -79.97465 22860 ft 364 kts 59°
2026-05-07 21:59 -0.67442 -79.95285 22874 ft 365 kts 61°
2026-05-07 21:59 -0.66150 -79.93087 22850 ft 369 kts 61°
2026-05-07 21:59 -0.64850 -79.90875 22847 ft 368 kts 60°
2026-05-07 21:59 -0.63575 -79.88705 22859 ft 366 kts 60°
2026-05-07 22:00 -0.62281 -79.86503 22872 ft 365 kts 60°
2026-05-07 22:00 -0.61001 -79.84324 22885 ft 364 kts 59°
2026-05-07 22:00 -0.59724 -79.82151 22897 ft 364 kts 59°
2026-05-07 22:00 -0.58436 -79.79959 22905 ft 364 kts 59°
2026-05-07 22:01 -0.57155 -79.77781 22897 ft 368 kts 60°
2026-05-07 22:01 -0.55858 -79.75574 22874 ft 371 kts 60°
2026-05-07 22:01 -0.54658 -79.73262 22863 ft 371 kts 66°
2026-05-07 22:01 -0.53627 -79.70919 22861 ft 368 kts 68°
2026-05-07 22:02 -0.52672 -79.68580 22865 ft 367 kts 68°
2026-05-07 22:02 -0.51709 -79.66203 22884 ft 363 kts 68°
2026-05-07 22:02 -0.50756 -79.63868 22897 ft 363 kts 68°
2026-05-07 22:02 -0.49800 -79.61537 22905 ft 363 kts 68°
2026-05-07 22:03 -0.48846 -79.59222 22914 ft 363 kts 69°
2026-05-07 22:03 -0.47889 -79.56908 22914 ft 363 kts 69°
2026-05-07 22:03 -0.46902 -79.54525 22873 ft 367 kts 69°
2026-05-07 22:03 -0.45924 -79.52169 22847 ft 368 kts 69°
2026-05-07 22:04 -0.44953 -79.49831 22831 ft 367 kts 69°
2026-05-07 22:04 -0.43976 -79.47480 22822 ft 366 kts 69°
2026-05-07 22:04 -0.43000 -79.45134 22778 ft 367 kts 68°
2026-05-07 22:04 -0.42027 -79.42797 22470 ft 363 kts 67°
2026-05-07 22:05 -0.41058 -79.40470 22069 ft 362 kts 69°
2026-05-07 22:05 -0.40091 -79.38146 21667 ft 359 kts 69°
2026-05-07 22:05 -0.39143 -79.35872 21289 ft 356 kts 69°
2026-05-07 22:05 -0.38185 -79.33571 20908 ft 353 kts 69°
2026-05-07 22:06 -0.37245 -79.31315 20532 ft 350 kts 68°
2026-05-07 22:06 -0.36312 -79.29074 20156 ft 348 kts 68°
2026-05-07 22:06 -0.35396 -79.26877 19785 ft 346 kts 68°
2026-05-07 22:06 -0.34464 -79.24640 19404 ft 343 kts 67°
2026-05-07 22:07 -0.33551 -79.22450 19031 ft 341 kts 69°
2026-05-07 22:07 -0.32639 -79.20258 18651 ft 339 kts 69°
2026-05-07 22:07 -0.32072 -79.18018 18275 ft 336 kts 83°
2026-05-07 22:07 -0.31901 -79.15720 17968 ft 332 kts 86°
2026-05-07 22:08 -0.31776 -79.13404 17719 ft 327 kts 87°
2026-05-07 22:08 -0.31683 -79.11186 17508 ft 323 kts 88°
2026-05-07 22:08 -0.31604 -79.08926 17291 ft 317 kts 88°
2026-05-07 22:08 -0.31537 -79.06746 17077 ft 312 kts 88°
2026-05-07 22:09 -0.31479 -79.04605 16864 ft 307 kts 89°
2026-05-07 22:09 -0.31427 -79.02490 16651 ft 301 kts 89°
2026-05-07 22:09 -0.31381 -79.00429 16460 ft 296 kts 89°
2026-05-07 22:09 -0.31339 -78.98386 16274 ft 290 kts 89°
2026-05-07 22:10 -0.31300 -78.96398 16071 ft 287 kts 89°
2026-05-07 22:10 -0.31263 -78.94401 15867 ft 283 kts 89°
2026-05-07 22:10 -0.31229 -78.92461 15669 ft 280 kts 89°
2026-05-07 22:10 -0.31195 -78.90518 15475 ft 276 kts 89°
2026-05-07 22:11 -0.31163 -78.88600 15343 ft 276 kts 89°
2026-05-07 22:11 -0.31132 -78.86682 15219 ft 278 kts 89°
2026-05-07 22:11 -0.31101 -78.84743 15093 ft 278 kts 89°
2026-05-07 22:11 -0.31071 -78.82822 14971 ft 278 kts 90°
2026-05-07 22:12 -0.31038 -78.80860 14848 ft 283 kts 90°
2026-05-07 22:12 -0.31008 -78.78910 14719 ft 277 kts 90°
2026-05-07 22:12 -0.30981 -78.76987 14595 ft 275 kts 90°
2026-05-07 22:12 -0.30953 -78.75086 14476 ft 280 kts 90°
2026-05-07 22:13 -0.30924 -78.73167 14348 ft 278 kts 89°
2026-05-07 22:13 -0.30895 -78.71234 14221 ft 274 kts 89°
2026-05-07 22:13 -0.30867 -78.69331 14096 ft 274 kts 89°
2026-05-07 22:13 -0.30839 -78.67466 13973 ft 273 kts 89°
2026-05-07 22:14 -0.30810 -78.65543 13846 ft 273 kts 89°
2026-05-07 22:14 -0.30782 -78.63629 13719 ft 272 kts 89°
2026-05-07 22:14 -0.30754 -78.61758 13594 ft 278 kts 89°
2026-05-07 22:14 -0.30723 -78.59798 13286 ft 279 kts 89°
2026-05-07 22:15 -0.30694 -78.57861 12880 ft 278 kts 89°
2026-05-07 22:15 -0.30666 -78.55944 12486 ft 276 kts 89°
2026-05-07 22:15 -0.30639 -78.54027 12086 ft 273 kts 89°
2026-05-07 22:15 -0.30611 -78.52132 11684 ft 271 kts 88°
2026-05-07 22:16 -0.30583 -78.50284 11287 ft 269 kts 90°
2026-05-07 22:16 -0.30555 -78.48421 10939 ft 265 kts 90°
2026-05-07 22:16 -0.30529 -78.46630 10846 ft 250 kts 89°
2026-05-07 22:16 -0.30504 -78.44946 10794 ft 235 kts 89°
2026-05-07 22:17 -0.30481 -78.43377 10774 ft 218 kts 90°
2026-05-07 22:17 -0.30496 -78.41911 10586 ft 210 kts 92°
2026-05-07 22:17 -0.30516 -78.40475 10383 ft 195 kts 90°
2026-05-07 22:17 -0.30376 -78.39182 10136 ft 182 kts 82°
2026-05-07 22:18 -0.30037 -78.38015 10008 ft 168 kts 69°
2026-05-07 22:18 -0.28729 -78.36176 10014 ft 164 kts 45°
2026-05-07 22:18 -0.27808 -78.35519 10055 ft 166 kts 34°
2026-05-07 22:19 -0.26705 -78.35098 10056 ft 168 kts 18°
2026-05-07 22:19 -0.25568 -78.34890 10050 ft 173 kts
2026-05-07 22:19 -0.24350 -78.34867 9934 ft 174 kts 358°
2026-05-07 22:19 -0.23561 -78.34903 9832 ft 171 kts 356°
2026-05-07 22:20 -0.22013 -78.34994 9672 ft 165 kts 357°
2026-05-07 22:20 -0.21237 -78.35035 9550 ft 164 kts 357°
2026-05-07 22:20 -0.20082 -78.35093 9373 ft 164 kts 357°
2026-05-07 22:20 -0.18598 -78.35162 9146 ft 163 kts 357°
2026-05-07 22:21 -0.17829 -78.35198 9031 ft 161 kts 357°
2026-05-07 22:21 -0.16735 -78.35252 8859 ft 155 kts 357°
2026-05-07 22:21 -0.15310 -78.35298 8362 ft 156 kts 358°
2026-05-07 22:21 -0.14579 -78.35322 8118 ft 152 kts 357°
2026-05-07 22:22 -0.13556 -78.35378 8000 ft 144 kts 355°
2026-05-07 22:22 -0.12659 -78.35434 7999 ft 106 kts
2026-05-07 22:22 -0.12094 -78.35456 7999 ft 63 kts 356°
2026-05-07 22:22 -0.11788 -78.35489 7999 ft 26 kts 332°
2026-05-07 22:23 -0.11707 -78.35546 7999 ft 8 kts 327°
2026-05-07 22:23 -0.11671 -78.35568 7999 ft 6 kts 329°
2026-05-07 22:23 -0.11639 -78.35590 7999 ft 7 kts 319°
2026-05-07 22:23 -0.11642 -78.35633 7999 ft 6 kts 213°
2026-05-07 22:24 -0.11664 -78.35638 7999 ft 0 kts 184°
2026-05-07 22:24 -0.11670 -78.35638 7999 ft 3 kts 184°
2026-05-07 22:24 -0.11721 -78.35642 7999 ft 11 kts 184°
2026-05-07 22:25 -0.11799 -78.35642 7999 ft 14 kts 176°
2026-05-07 22:25 -0.11903 -78.35636 7999 ft 16 kts 176°
2026-05-07 22:25 -0.12023 -78.35629 7999 ft 18 kts 177°
2026-05-07 22:25 -0.12142 -78.35624 7999 ft 14 kts 179°
2026-05-07 22:26 -0.12223 -78.35622 7999 ft 9 kts 178°
2026-05-07 22:26 -0.12267 -78.35621 7999 ft 4 kts 179°
2026-05-07 22:26 -0.12289 -78.35620 7999 ft 4 kts 179°
2026-05-07 22:26 -0.12323 -78.35619 7999 ft 6 kts 185°
2026-05-07 22:27 -0.12355 -78.35655 7999 ft 8 kts 257°
2026-05-07 22:27 -0.12360 -78.35715 7999 ft 9 kts 269°
2026-05-07 22:27 -0.12361 -78.35784 7999 ft 10 kts 269°
2026-05-07 22:27 -0.12406 -78.35825 7999 ft 10 kts 189°
2026-05-07 22:28 -0.12475 -78.35852 7999 ft 11 kts 217°
2026-05-07 22:28 -0.12494 -78.35901 7999 ft 5 kts 267°
2026-05-07 22:28 -0.12495 -78.35913 7999 ft 0 kts 266°